DMSP 5D-2 F13 DEB, 40465

Orbit data source: Space-Track

DMSP 5D-2 F13 DEB, 40465 is space debris in SSO originally from a launch on Fri, 24 Mar 1995 UTC launched from the Air Force Western Test Range (AFWTR). Debris objects in space refer to the collection of defunct objects orbiting the Earth. Examples of debris include non-operational satellites, rocket bodies, and fragments generated from explosions, collisions, or faulty payload assembly.

Loading next visibility...
Identifier
40465, 1995-015BH
Orbit
SSO
Country
Flag of USUS
Related business
Manufacturer
Unknown
Mission
Spacecraft
Bus & Motor
Unknown
Mass
Unknown
Launch date (UTC)
1995-03-24 (31 years ago)
Launch vehicle
Unknown
Launch site
Air Force Western Test Range (AFWTR)
Object type
Payload
Rocket body
Debris
Shape & HBR
Unknown shape, 0.1 m
Radar Cross Section
Medium (>0.1 m² and <1 m²)

Expand to show TLE details & history
Last TLE update: 2 weeks ago

TLE from 2 weeks ago
0 DMSP 5D-2 F13 DEB
1 40465U 95015BH  26159.81332417  .00003510  00000-0  14890-2 0  9994
2 40465  98.9597 187.7409 0041594  98.8802 261.7090 14.25545976579095
Epoch: 2026-06-08T19:31Z
TLE epoch observation values (Epoch: 2026-06-08T19:31:11.208Z)
Latitude
0.00006°
Longitude
-2.2506°
Altitude
814.003 km
Speed
7.444 km/s
True Right ascension
12h 30m 57s
True Declination
0° 00' 00"
Sunlit
Object was in daylight at epoch
Visualization orbit readout
Latitude
Unknown
Longitude
Unknown
Altitude
Unknown
Speed
Unknown
Apparent Right ascension
Unknown
Apparent Declination
Unknown
Sunlit
N/A
Visualization observer readout
Local Sidereal Time
21:35:38
Azimuth
Unknown
Elevation
Unknown
Doppler factor
Unknown
Orbital elements
Apogee altitude
833.693 km
Perigee altitude
773.948 km
Semi-major axis
7,181.958 km
Eccentricity
0.00416
Inclination
98.9597°
RAAN
187.7409°
Arg. of periapsis
98.8802°
True anomaly
261.23771°
Mean anomaly
261.709°
Eccentric anomaly
261.47332°
Mean motion
3.56598 °/min
Orbital period
100.95 mins
BSTAR
0.001489

Documentation

Showing up to 5 results
|